Regional Weather Roundup
Issued by NWS Portland, ME

Home | Current Version | Previous Version | Text Only | Print | Product List | Glossary On
Versions: 1 2 3 4 5 6 7 8 9 10 11 12 13 14 15 16 17 18 19 20 21 22 23 24 25 26 27 28 29 30 31 32 33 34 35 36 37 38 39 40 41 42 43 44 45 46 47 48 49 50
000
ASUS41 KGYX 070210
RWRGYX
WEATHER ROUNDUP FOR MAINE AND NEW HAMPSHIRE
NATIONAL WEATHER SERVICE GRAY ME
900 PM EST FRI MAR 06 2015

MEZ002-005-006-010-012-015-018-020-021-024-026-027-029-070300-
MAINE

CITY           SKY/WX    TMP DP  RH WIND       PRES   REMARKS
PORTLAND       CLEAR     22   2  42 SW6       30.29F
SANFORD        PTCLDY    16  -2  45 S5        30.28F
BAR HARBOR     CLEAR     18   9  68 SW6       30.29F
WISCASSET      CLEAR      7   0  73 CALM      30.30F
ROCKLAND       CLEAR     21   7  53 SW8       30.28F
FRYEBURG       FAIR      17  -9  31 SW7       30.24F
LEWISTONAUBURN CLEAR     16  -2  45 S8        30.25S
AUGUSTA        CLEAR     14   1  56 SW6       30.26F
WATERVILLE     CLEAR     14  -2  48 CALM      30.22S
BANGOR         PTCLDY    15   0  51 S8        30.26F
GREENVILLE       N/A      9 -11  40 CALM      30.09S
MILLINOCKET    PTCLDY    16  -9  32 CALM      30.20F
HOULTON        CLEAR     14 -10  33 S7        30.16S
PRESQUE ISLE   CLEAR      9 -17  31 S3        30.13S
FRENCHVILLE    CLEAR     10 -11  38 SW9       30.05F
CARIBOU        CLEAR     10 -12  36 S5        30.10F
$$

NHZ002-005-008-009-011-012-014-070300-
NEW HAMPSHIRE

CITY           SKY/WX    TMP DP  RH WIND       PRES   REMARKS
PORTSMOUTH     MOCLDY    19   6  57 S6        30.29F
ROCHESTER      PTCLDY    17   0  47 CALM      30.28F
NASHUA         PTCLDY    15   5  64 CALM      30.32F
MANCHESTER     MOCLDY    22  -1  36 S6        30.29S
CONCORD        PTCLDY    17  -4  39 S6        30.28F
LACONIA        PTCLDY    16   0  48 W5        30.22F
PLYMOUTH       FAIR       8   3  78 CALM      30.25F
BERLIN         CLEAR     -1 -11  62 CALM      30.16F
WHITEFIELD     CLEAR      0  -9  65 CALM      30.18F
JAFFREY        FAIR      13  -3  49 S6        30.24F
KEENE          PTCLDY    12   1  62 S3        30.28F
LEBANON        PTCLDY    14  -5  42 SW7       30.25F
MT WASHINGTON  MOCLDY    -6 -15  65 W38         N/A  WCI -36
$$

VTZ005-007-008-070300-
VERMONT

CITY           SKY/WX    TMP DP  RH WIND       PRES   REMARKS
ST JOHNSBURY     N/A     11  -3  53 MISG      30.19F
MONTPELIER     PTCLDY    12  -6  44 SW3       30.22S
BURLINGTON     CLEAR     19  -3  38 S13       30.23F WCI   6
$$

MAZ007-012-024-CTZ003-RIZ002-NYZ038-NYZ072-070300-
SOUTHERN NEW ENGLAND AND NY

CITY           SKY/WX    TMP DP  RH WIND       PRES   REMARKS
BOSTON         MOCLDY    20   8  60 SW14      30.35F WCI   7
WORCESTER      MOCLDY    17  -5  37 SW13      30.26F WCI   4
NANTUCKET      CLEAR     14   8  77 W6        30.38F
PROVIDENCE     MOCLDY    16   6  65 SW7       30.38F
HARTFORD       MOCLDY    21   7  54 S8        30.34S
ALBANY         MOCLDY    17   2  51 CALM      30.31F
NEW YORK CITY  MOCLDY    24   8  50 SW10      30.38F WCI  14
$$

ANZ081-ANZ082-ANZ150-NHZ014-MEZ023>029-070300-
COASTAL MARINE OBSERVATIONS

STATION/POSITION TIME  TEMP    WIND        PRES    WAVE
                       AIR SEA DIR/SP/G            HT/PER
                 (UTC) (F)     (DEG/KT/KT) (MB)    (FT/S)
MOUNT DESERT ROC 0200   24                 1025.5F
MATINICUS ROCK   0200   25     230/ 20/ 25 1026.0F
WELLS            0112          230/  8/ 10 1025.7F
ISLE OF SHOALS   0200   25     210/ 23/ 25 1025.4F
JEFFREYS LEDGE   0121      40                N/A     3/ 4
CASHES LEDGE BUO 0150   27 42              1026.0F   3/ 3
$$

.............KEY..............
   WCI - WIND CHILL
   TC  - TEMPERATURE IN CELSIUS
   VSB - VISIBILITY IN MILES
   HX  - HEAT INDEX
   FAIR- INDICATES FEW OR NO CLOUDS BELOW 12,000 FT, WITH NO
         SIGNIFICANT WEATHER AND/OR OBSTRUCTIONS TO VISIBILITY.





USA.gov is the U.S. government's official web portal to all federal, state and local government web resources and services.